Weather in Novaya Zbur'evka

Ukraine / Kherson District     46°27′02″N   32°27′13″E
temp.,
°C
wind,
m/s
gust,
m/s
humid.,
%
clouds,
%
prec.,
mm/h
press.,
hPa
HPBL,
m
17 october, sun
sun1700:00+14ne3758100 0.0 1015227
03:00+13nne3559100 0.1 1016172
06:00+11n5968100 0.5 1016302
09:00+10nne5878100 1.5 1017263
12:00+13nne4655100 0.3 1018463
15:00+13n5762100 0.3 1017490
18:00+13n4866100 0.0 1018336
21:00+12nnw376570 0.0 1019200
18 october, mon
mon1800:00+10n467510 0.0 1020115
03:00+8n367953 0.0 1020101
06:00+6n348319 0.0 102162
09:00+9n45685 0.0 1022228
12:00+13nw45465 0.0 1022991
15:00+15nw563931 0.0 10211279
18:00+12nw46495 0.0 102190
21:00+9nnw235743 0.0 102224
19 october, tue
tue1900:00+9w3358100 0.0 102225
03:00+8nw48625 0.0 1022132
06:00+9wnw511665 0.0 1022429
09:00+10nw7116512 0.0 1024608
12:00+13nnw78468 0.0 10251650
15:00+14nnw782976 0.0 10251839
18:00+10nnw47335 0.0 1026123
21:00+7nnw34415 0.0 102849
20 october, wed
wed2000:00+6nnw224510 0.0 102910
03:00+6w114686 0.0 102910
06:00+5w1152100 0.0 102910
09:00+8s1142100 0.0 103079
12:00+13sw333087 0.0 10291112
15:00+15sw44285 0.0 10281435
18:00+10ssw46415 0.0 102785
21:00+9s45535 0.0 102775
21 october, thu
thu2100:00+9s47625 0.0 1026111
03:00+9ssw49655 0.0 1025150
06:00+9ssw48710 0.0 1024110
09:00+12s59575 0.0 1024585
12:00+16ssw89425 0.0 1023972
15:00+16ssw910425 0.0 1021991
18:00+13ssw7147841 0.0 1020643
21:00+13ssw7148899 0.0 1019610